Weather in Rtischevo

Russia / Saratov Oblast     52°15′26″N   43°47′08″E
temp.,
°C
wind,
m/s
gust,
m/s
humid.,
%
clouds,
%
prec.,
mm/h
press.,
hPa
HPBL,
m
13 april, tue
tue1301:00+11ese4126860 0.0 1030205
04:00+9ese4126799 0.0 1030187
07:00+8ese5126780 0.0 1030190
10:00+14se7114472 0.0 1030438
13:00+19se79295 0.0 1029999
16:00+19se7827100 0.0 10281349
19:00+17se484272 0.0 1027176
22:00+12ese41055100 0.0 1027136
14 april, wed
wed1401:00+10ese4116181 0.0 1027170
04:00+8ese411655 0.0 1026155
07:00+7ese5116772 0.0 1025175
10:00+14ese6104627 0.0 1024435
13:00+18se78327 0.0 10221130
16:00+19se6829100 0.0 10211542
19:00+16se364366 0.0 1020104
22:00+12ese4756100 0.0 1020100
15 april, thu
thu1501:00+10ese4106478 0.0 1019155
04:00+9ese4117128 0.0 1019152
07:00+9ese4117684 0.0 1017172
10:00+15se695583 0.0 1017473
13:00+18sse5639100 0.0 1016979
16:00+20sse4633100 0.0 10151331
19:00+17sse2245100 0.0 101512
22:00+14se345761 0.0 101544
16 april, fri
fri1601:00+12se336299 0.0 101529
04:00+10se3365100 0.0 101531
07:00+10se3465100 0.0 101643
10:00+16se474899 0.0 1017362
13:00+19se5634100 0.0 10171453
16:00+19se4534100 0.0 10172213
19:00+17ese344646 0.0 101774
22:00+13ese455398 0.0 101858
17 april, sat
sat1701:00+11e41161100 0.0 1018177
04:00+10e4116981 0.0 1019217
07:00+10e51383100 0.0 1020300
10:00+15e8115955 0.0 1019576
13:00+17e785397 0.0 10211036
16:00+18e774681 0.3 10211872
19:00+16e695495 0.1 1021520
22:00+11e5116353 0.1 1023341